Regional Weather Roundup
Issued by NWS New Orleans/Baton Rouge, LA

Home | Current Version | Previous Version | Text Only | Print | Product List | Glossary On
Versions: 1 2 3 4 5 6 7 8 9 10 11 12 13 14 15 16 17 18 19 20 21 22 23 24 25 26 27 28 29 30 31 32 33 34 35 36 37 38 39 40 41 42 43 44 45 46 47 48 49 50
847
ASUS44 KLIX 240405
RWRLIX
NEW ORLEANS REGIONAL WEATHER ROUNDUP
NATIONAL WEATHER SERVICE NEW ORLEANS LA
1000 PM CST SUN NOV 23 2014

NOTE: "FAIR" INDICATES FEW OR NO CLOUDS BELOW 12,000 FEET WITH NO
      SIGNIFICANT WEATHER AND/OR OBSTRUCTIONS TO VISIBILITY.
      SKY/WX - SKY CONDITION AND SIGNIFICANT WEATHER.
      TMP - AIR TEMPERATURE.     DP    - DEWPOINT TEMPERATURE.
      RH  - RELATIVE HUMIDITY.   PRES  - PRESSURE.
      HI  - HEAT INDEX.          WCI   - WIND CHILL INDEX.

*  THESE STATIONS ARE NOT NWS OR FAA STATIONS AND ARE NOT UNDER
   NWS QUALITY CONTROL.

LAZ038-040-048-061>063-065>067-069-240500-
SOUTHEAST LOUISIANA

CITY           SKY/WX    TMP DP  RH WIND       PRES   REMARKS
N.O. AUDUBON     N/A     67  67 100 MISG        N/A
N.O. INTL ARPT PTCLDY    64  62  93 S8        29.74R
N.O. LAKEFRONT PTCLDY    68  65  90 S13       29.75R
N.O. DOWNTOWN* CLOUDY    70  64  83 S9        29.75S
SLIDELL        MOCLDY    68  66  93 S9        29.73S
BATON ROUGE    PTCLDY    68  64  87 SW16G25   29.70R
BOOTHVILLE     CLOUDY    68  68 100 S10       29.77R
BELLE CHASSE   CLOUDY    69  65  86 SW8       29.74S
BOGALUSA*        N/A     66  62  87 S7        29.74R
NEW ROADS*       N/A     66  64  93 S8        29.70R
GONZALES*      MOCLDY    66  66 100 S5        29.72R
HAMMOND*       MOCLDY    68  64  88 SW6       29.74R
HOUMA*         CLEAR     69  67  94 SW7       29.74R
PORT FOURCHON* MOCLDY    70  68  94 S8        29.79R FOG

$$

MSZ070-080>082-240500-
SOUTHERN MISSISSIPPI

CITY           SKY/WX    TMP DP  RH WIND       PRES   REMARKS
MCCOMB         MOCLDY    64  62  93 SW10      29.69R
GULFPORT       CLOUDY    67  65  93 S8        29.75R
BILOXI         MOCLDY    64  64 100 SW12      29.76R
PASCAGOULA     MOCLDY    68  67  96 S9G18     29.76R

$$

COASTAL OBSERVATIONS
LAKE AND NEARSHORE STATIONS

STATION/POSITION TIME  TEMP    WIND        PRES    WAVE
                       AIR SEA DIR/SP/G            HT/PER
                 (UTC) (F)     (DEG/KT/KT) (MB)    (FT/S)
PASCAGOULA       0400   66     200/ 13/ 16 1007.0
WAVELAND YACHT   0400   63     210/  8/ 11 1006.6
GRAND ISLE       0400   70 65  200/  8/ 12 1008.1
SOUTHWEST PASS   0400   69 74              1008.3
NEW CANAL        0400   67 56  190/  6/  8 1007.3
SHELL BEACH      0400   67 54  190/  9/ 11 1007.3

OFFSHORE STATIONS

STATION/POSITION TIME  TEMP    WIND        PRES    WAVE
                       AIR SEA DIR/SP/G            HT/PER
                 (UTC) (F)     (DEG/KT/KT) (MB)    (FT/S)
64 S DAUPHIN ISL 0320   73 72  190/ 14/ 16 1008.8    6/ 7

$$




USA.gov is the U.S. government's official web portal to all federal, state and local government web resources and services.